SL-4 R/B (48866 NORAD) Tracking and Keplerian Element Data

This shows tracking and keplerian element data for the satellite.

Feedback or suggestion? Click here.




ElementValue
Catalog48866
NameSL-4 R/B
Epoch Orbit460
Epoch Day205.58231429
Epoch Year2021
RAAN102.2216
Inclination67.1259
Eccentricity0.0054101
Argument of Perigee66.3915
Mean Anonmoly294.3417
Mean Motion16.27476311
Decay Rate0.02302267
L11 48866U 21056B 21205.58231429 .02302267 60829-5 41950-3 0 9994
L22 48866 67.1259 102.2216 0054101 66.3915 294.3417 16.27476311 4607

Live tracking and technical data element details for SL-4 R/B (NORAD 48866). SL-4 R/B can be tracked NOW for your location showing map with azimuth and elevation plus other details from your city location.

Track the satellite on the map from your city or location and see movement details for azimuth, elevation, latitude, longitude, range, height, and movement on the map or in text.







IsCatalogInMostPopularTable: catalog: 48866, numindb: 19
Update: records affected: 1



GetName: 48866 SL-4 R/B

Hit Count: updated at: Sun, 26 Sep 2021 16:13:17 GMT